User: anonymous   Login
Location: Long Point Provincial Park
(42.5794°N, 80.4103°W)
Time: 22:29:53
(UTC-04:00)
Language:

Iridium 19 - Orbit

View from above orbital plane
View from above orbital plane
View from above satellite
View from above satellite

Ground track
Ground track

The orbit data is extracted from the following two-line orbital elements,

1 24965U 97056A   15245.46124210  .00000012  00000-0 -29052-5 0  9997
2 24965  86.3943 231.9162 0002328  87.4648 272.6814 14.34216710938859
Epoch (UTC): 02 September 2015 11:04:11
Eccentricity: 0.0002328
inclination: 86.3943°
perigee height: 776 km
apogee height: 779 km
right ascension of ascending node: 231.9162°
argument of perigee: 87.4648°
revolutions per day: 14.34216710
mean anomaly at epoch: 272.6814°
orbit number at epoch: 93885

The dashed part of the orbit path shows where the satellite is in the earth's shadow,  

DLR